Hourly Data Report for October 21, 2015

All times are specified in Local Standard Time (LST). Add 1 hour to adjust for Daylight Saving Time where and when it is observed.

PANGNIRTUNG
NUNAVUT

66°08'36.300" N
65°42'40.500" W
22.60 m
2403049
71826
WXP

Download Data

Hourly Data (October 2015)
Hourly Data Report for October 21, 2015
Temp Definition
°C
Dew Point Temp Definition
°C
Rel Hum Definition
%
Wind Dir Definition
10's deg

Wind Spd Definition
km/h
Visibility Definition
km
Stn Press Definition
kPa
Hmdx Definition


Wind Chill Definition


Weather Definition


TIME
00:00 -7.1 -14.9 54 11 8   100.88   -11 LegendNANA
01:00 -7.4 -14.8 55 12 7   100.89   -11 LegendNANA
02:00 -7.4 -15.1 54 14 4   100.92   -9 LegendNANA
03:00 -8.5 -14.1 64 30 3   100.95   -10 LegendNANA
04:00 -8.3 -13.5 66 16 2   100.97   -9 LegendNANA
05:00 -8.1 -14.3 61 9 2   100.98   -9 LegendNANA
06:00 -8.4 -14.4 62 11 10   101.00   -13 LegendNANA
07:00 -8.1 -14.0 63 10 10   100.99   -13 LegendNANA
08:00 -7.6 -12.7 67 10 6   100.98   -11 LegendNANA
09:00 -7.1 -12.8 64 6 4   100.94   -9 LegendNANA
10:00 -6.7 -11.8 67 4 4   100.91   -9 LegendNANA
11:00 -6.6 -10.9 71 25 5   100.89   -9 LegendNANA
12:00 -6.2 -10.4 72 11 6   100.84   -9 LegendNANA
13:00 -6.9 -10.4 76 24 14   100.81   -13 LegendNANA
14:00 -6.8 -11.4 70 25 15   100.78   -13 LegendNANA
15:00 -6.4 -12.3 63 22 15   100.76   -12 LegendNANA
16:00 -6.7 -12.6 63 24 12   100.73   -12 LegendNANA
17:00 -7.3 -12.3 67 30 15   100.70   -13 LegendNANA
18:00 -7.7 -12.7 68 28 13   100.68   -13 LegendNANA
19:00 -7.7 -13.0 66 26 11   100.64   -13 LegendNANA
20:00 -8.4 -13.1 68 25 13   100.60   -14 LegendNANA
21:00 -7.2 -12.3 67 26 17   100.55   -14 LegendNANA
22:00 -7.8 -12.7 68 22 9   100.52   -12 LegendNANA
23:00 -9.2 -13.2 73 10 2   100.47   -10 LegendNANA

Notes on Data Quality.

Legend

  • E = Estimated
  • M = Missing
  • NA = Not Available
  • ‡ = Partner data that is not subject to review by the National Climate Archives
Date modified: